Torna al catalogo

COSMOS 2499 DEB

AttivoPO
NORAD 56581·DEBRIS·🇷🇺 Russia

Lanciato May 23, 2014 da Plesetsk Cosmodrome

Loading…

Prossimi Passaggi (prossime 24 ore)

TLE

AggiornatoSource: Space-Track

Epoca: Sep 14, 2026, 19:47 UTC

1 56581U 14028BQ  26257.82476118  .00007775  00000-0  10934-1 0  9993
2 56581  82.2282  98.2132 0328828 287.8980  68.6554 13.37119118110820

Traccia COSMOS 2499 DEB in tempo reale con AllMySat

Download on the App Store